• In United Kingdom
  • List of Countries
  • For 7 days
  • Water Temperature
  • Satellite Maps
  • Weather Map
  • Weather Widgets
  • user-avatar
    Login

    Hourly Weather Klagenfurt

    Today, 28 June, Wednesday

    Time Temperature Precipitation Wind Pressure Humidity
    00:00 +14°C° 0 mm 1 mps 685 mmHg 86%
    01:00 +14°C° 0 mm 1 mps 684 mmHg 85%
    02:00 +14°C° 0 mm 1 mps 684 mmHg 85%
    03:00 +14°C° 0 mm 1 mps 684 mmHg 85%
    04:00 +14°C° 0 mm 1 mps 684 mmHg 85%
    05:00 +16°C° 0 mm 1 mps 684 mmHg 79%
    06:00 +19°C° 0 mm 1 mps 684 mmHg 74%
    07:00 +21°C° 0 mm 1 mps 684 mmHg 66%
    08:00 +22°C° 0.3 mm 1 mps 684 mmHg 64%
    09:00 +24°C° 0.3 mm 2 mps 684 mmHg 62%
    10:00 +25°C° 0.3 mm 3 mps 684 mmHg 60%
    11:00 +25°C° 0.7 mm 3 mps 684 mmHg 61%
    12:00 +25°C° 0.7 mm 4 mps 683 mmHg 63%
    13:00 +25°C° 0.7 mm 4 mps 683 mmHg 64%
    14:00 +23°C° 2.4 mm 4 mps 683 mmHg 72%
    15:00 +21°C° 2.4 mm 3 mps 682 mmHg 79%
    16:00 +20°C° 2.4 mm 3 mps 682 mmHg 86%
    17:00 +19°C° 3.5 mm 2 mps 681 mmHg 90%
    18:00 +18°C° 3.5 mm 2 mps 681 mmHg 93%
    19:00 +18°C° 3.5 mm 1 mps 680 mmHg 97%
    20:00 +18°C° 3.8 mm 1 mps 680 mmHg 97%
    21:00 +18°C° 3.8 mm 1 mps 680 mmHg 97%
    22:00 +16°C° 3.8 mm 1 mps 680 mmHg 98%
    23:00 +16°C° 2.5 mm 1 mps 679 mmHg 98%

    Tomorrow, 29 June, Thursday

    Time Temperature Precipitation Wind Pressure Humidity
    00:00 +15°C° 2.5 mm 1 mps 679 mmHg 98%
    01:00 +15°C° 2.5 mm 1 mps 679 mmHg 98%
    02:00 +15°C° 1.6 mm 1 mps 678 mmHg 98%
    03:00 +14°C° 1.6 mm 1 mps 678 mmHg 97%
    04:00 +14°C° 1.6 mm 1 mps 678 mmHg 97%
    05:00 +15°C° 0.3 mm 2 mps 678 mmHg 95%
    06:00 +16°C° 0.3 mm 2 mps 678 mmHg 93%
    07:00 +17°C° 0.3 mm 2 mps 679 mmHg 91%
    08:00 +18°C° 0.1 mm 3 mps 680 mmHg 81%
    09:00 +19°C° 0.1 mm 3 mps 680 mmHg 72%
    10:00 +20°C° 0.1 mm 4 mps 681 mmHg 62%
    11:00 +21°C° 0.3 mm 4 mps 681 mmHg 62%
    12:00 +21°C° 0.3 mm 4 mps 681 mmHg 62%
    13:00 +21°C° 0.3 mm 5 mps 682 mmHg 62%
    14:00 +21°C° 0.2 mm 4 mps 682 mmHg 60%
    15:00 +21°C° 0.2 mm 4 mps 682 mmHg 59%
    16:00 +21°C° 0.2 mm 4 mps 682 mmHg 57%
    17:00 +20°C° 0.1 mm 4 mps 682 mmHg 62%
    18:00 +19°C° 0.1 mm 3 mps 682 mmHg 67%
    19:00 +18°C° 0.1 mm 2 mps 682 mmHg 72%
    20:00 +17°C° 0.1 mm 2 mps 682 mmHg 76%
    21:00 +15°C° 0.1 mm 2 mps 682 mmHg 80%
    22:00 +14°C° 0.1 mm 2 mps 682 mmHg 84%
    23:00 +13°C° 0 mm 2 mps 682 mmHg 85%

    Day after tomorrow, 30 June, Friday

    Time Temperature Precipitation Wind Pressure Humidity
    00:00 +13°C° 0 mm 2 mps 683 mmHg 87%
    01:00 +12°C° 0 mm 2 mps 683 mmHg 88%
    02:00 +12°C° 0.1 mm 2 mps 683 mmHg 89%
    03:00 +12°C° 0.1 mm 2 mps 683 mmHg 90%
    04:00 +12°C° 0.1 mm 2 mps 683 mmHg 91%
    05:00 +13°C° 0 mm 2 mps 684 mmHg 85%
    06:00 +15°C° 0 mm 2 mps 685 mmHg 80%
    07:00 +17°C° 0 mm 3 mps 685 mmHg 74%
    08:00 +18°C° 0.1 mm 3 mps 686 mmHg 68%
    09:00 +19°C° 0.1 mm 4 mps 686 mmHg 61%
    10:00 +20°C° 0.1 mm 4 mps 687 mmHg 54%
    11:00 +20°C° 0.1 mm 4 mps 687 mmHg 53%
    12:00 +20°C° 0.1 mm 4 mps 687 mmHg 52%
    13:00 +21°C° 0.1 mm 4 mps 687 mmHg 51%
    14:00 +20°C° 0 mm 4 mps 687 mmHg 51%
    15:00 +20°C° 0 mm 4 mps 687 mmHg 50%
    16:00 +20°C° 0 mm 4 mps 687 mmHg 50%
    17:00 +19°C° 0 mm 4 mps 687 mmHg 57%
    18:00 +18°C° 0 mm 3 mps 687 mmHg 65%
    19:00 +16°C° 0 mm 3 mps 686 mmHg 72%
    20:00 +15°C° 0.2 mm 2 mps 686 mmHg 78%
    21:00 +14°C° 0.2 mm 2 mps 686 mmHg 84%
    22:00 +13°C° 0.2 mm 1 mps 686 mmHg 89%
    23:00 +13°C° 0.4 mm 1 mps 686 mmHg 91%

    1 July, Saturday

    Time Temperature Precipitation Wind Pressure Humidity
    00:00 +13°C° 0.4 mm 1 mps 686 mmHg 93%
    01:00 +13°C° 0.4 mm 1 mps 685 mmHg 95%
    02:00 +12°C° 0.4 mm 1 mps 685 mmHg 95%
    03:00 +12°C° 0.4 mm 1 mps 685 mmHg 96%
    04:00 +12°C° 0.4 mm 1 mps 685 mmHg 96%
    05:00 +13°C° 0.2 mm 1 mps 685 mmHg 93%
    06:00 +14°C° 0.2 mm 1 mps 686 mmHg 91%
    07:00 +14°C° 0.2 mm 1 mps 686 mmHg 88%
    08:00 +16°C° 0.1 mm 1 mps 687 mmHg 77%
    09:00 +19°C° 0.1 mm 1 mps 687 mmHg 66%
    10:00 +21°C° 0.1 mm 1 mps 688 mmHg 55%
    11:00 +22°C° 0.3 mm 1 mps 688 mmHg 55%
    12:00 +21°C° 0.3 mm 2 mps 688 mmHg 56%
    13:00 +21°C° 0.3 mm 2 mps 688 mmHg 56%
    14:00 +21°C° 0.6 mm 2 mps 688 mmHg 60%
    15:00 +20°C° 0.6 mm 2 mps 688 mmHg 65%
    16:00 +20°C° 0.6 mm 2 mps 687 mmHg 69%
    17:00 +19°C° 0.4 mm 2 mps 687 mmHg 74%
    18:00 +18°C° 0.4 mm 1 mps 687 mmHg 79%
    19:00 +16°C° 0.4 mm 1 mps 687 mmHg 84%
    20:00 +15°C° 0.2 mm 1 mps 687 mmHg 87%
    21:00 +13°C° 0.2 mm 1 mps 687 mmHg 90%
    22:00 +11°C° 0.2 mm 1 mps 687 mmHg 93%
    23:00 +11°C° 0.1 mm 1 mps 687 mmHg 93%

    2 July, Sunday

    Time Temperature Precipitation Wind Pressure Humidity
    00:00 +10°C° 0.1 mm 1 mps 687 mmHg 93%
    01:00 +10°C° 0.1 mm 1 mps 687 mmHg 94%
    02:00 +10°C° 0 mm 1 mps 687 mmHg 94%
    03:00 +10°C° 0 mm 1 mps 687 mmHg 94%
    04:00 +9°C° 0 mm 1 mps 687 mmHg 93%
    05:00 +11°C° 0 mm 1 mps 687 mmHg 88%
    06:00 +13°C° 0 mm 1 mps 688 mmHg 83%
    07:00 +15°C° 0 mm 1 mps 688 mmHg 78%
    08:00 +18°C° 0 mm 1 mps 689 mmHg 69%
    09:00 +20°C° 0 mm 1 mps 690 mmHg 60%
    10:00 +21°C° 0 mm 1 mps 690 mmHg 50%
    11:00 +22°C° 0 mm 1 mps 691 mmHg 47%
    12:00 +23°C° 0 mm 1 mps 691 mmHg 44%
    13:00 +24°C° 0 mm 1 mps 691 mmHg 41%
    14:00 +24°C° 0 mm 1 mps 691 mmHg 43%
    15:00 +23°C° 0 mm 1 mps 691 mmHg 45%
    16:00 +23°C° 0 mm 1 mps 691 mmHg 47%
    17:00 +22°C° 0 mm 1 mps 691 mmHg 56%
    18:00 +20°C° 0 mm 1 mps 691 mmHg 64%
    19:00 +19°C° 0 mm 1 mps 691 mmHg 72%
    20:00 +15°C° 0 mm 1 mps 691 mmHg 77%
    21:00 +13°C° 0 mm 1 mps 691 mmHg 83%
    22:00 +11°C° 0 mm 1 mps 691 mmHg 88%
    23:00 +10°C° 0 mm 1 mps 691 mmHg 89%

    3 July, Monday

    Time Temperature Precipitation Wind Pressure Humidity
    00:00 +10°C° 0 mm 1 mps 691 mmHg 90%
    01:00 +9°C° 0 mm 1 mps 691 mmHg 91%
    02:00 +9°C° 0 mm 1 mps 691 mmHg 91%
    03:00 +9°C° 0 mm 1 mps 691 mmHg 91%
    04:00 +8°C° 0 mm 1 mps 691 mmHg 91%
    05:00 +11°C° 0 mm 1 mps 692 mmHg 83%
    06:00 +13°C° 0 mm 1 mps 692 mmHg 76%
    07:00 +16°C° 0 mm 1 mps 693 mmHg 68%
    08:00 +19°C° 0 mm 1 mps 693 mmHg 61%
    09:00 +21°C° 0 mm 1 mps 694 mmHg 53%
    10:00 +23°C° 0 mm 1 mps 694 mmHg 46%
    11:00 +24°C° 0 mm 1 mps 694 mmHg 45%
    12:00 +24°C° 0 mm 1 mps 694 mmHg 45%
    13:00 +24°C° 0 mm 1 mps 694 mmHg 44%
    14:00 +24°C° 0.1 mm 1 mps 694 mmHg 47%
    15:00 +24°C° 0.1 mm 1 mps 693 mmHg 49%
    16:00 +23°C° 0.1 mm 1 mps 693 mmHg 51%
    17:00 +22°C° 0.2 mm 1 mps 693 mmHg 62%
    18:00 +20°C° 0.2 mm 1 mps 693 mmHg 72%
    19:00 +19°C° 0.2 mm 1 mps 693 mmHg 83%
    20:00 +16°C° 0.2 mm 1 mps 693 mmHg 86%
    21:00 +14°C° 0.2 mm 1 mps 692 mmHg 90%
    22:00 +11°C° 0.2 mm 1 mps 692 mmHg 94%
    23:00 +11°C° 0.1 mm 1 mps 692 mmHg 94%
    Show more